Terminal Aerodrome Forecast
Issued by NWS Green Bay, WI

Home | Current Version | Previous Version | Graphics & Text | Print | Product List | Glossary On
Versions: 1 2 3 4 5 6 7 8 9 10 11 12 13 14 15 16 17 18 19 20 21 22 23 24 25 26 27 28 29 30 31 32 33 34 35 36 37 38 39 40 41 42 43 44 45 46 47 48 49 50
000
FTUS43 KGRB 200900 AAA
TAFGRB
TAF AMD
KGRB 200916Z 2009/2106 27003KT P6SM FEW050 SCT100
      TEMPO 2011/2013 5SM BR
     FM201500 31007KT P6SM SCT030 BKN050
     FM201700 32010G15KT P6SM VCSH BKN030 BKN040
     FM210000 35008KT P6SM BKN040=

USA.gov is the U.S. government's official web portal to all federal, state and local government web resources and services.